Regional Weather Roundup
Issued by NWS

Home | Current Version | Previous Version | Graphics & Text | Print | Product List | Glossary On
Versions: 1 2 3 4 5 6 7 8 9 10 11 12 13 14 15 16 17 18 19 20 21 22 23 24 25 26 27 28 29 30 31 32 33 34 35 36 37 38 39 40 41 42 43 44 45 46 47 48 49 50
000
ASUS44 KMEG 050200
RWRTN
TENNESSEE HOURLY STATE WEATHER ROUNDUP
NATIONAL WEATHER SERVICE MEMPHIS TN
900 PM CDT MON MAY 04 2015

TNZ002-004-019-021-049-052-054-088>092-050300-
WEST TENNESSEE

CITY           SKY/WX    TMP DP  RH WIND       PRES   REMARKS
MEMPHIS INTL   PTCLDY    72  55  55 S6        30.14S
NWS MEMPHIS      N/A     73 N/A N/A MISG        N/A
JACKSON        CLEAR     69  50  50 SE6       30.17R
DYERSBURG      CLEAR     72  43  35 SE5       30.16S
PARIS          CLEAR     66  52  59 S5        30.18S
LEXINGTON      CLEAR     63  54  72 CALM      30.18S
$$

TNZ008-025-027-028-033-062-065-066-050300-
NORTH MIDDLE TENNESSEE

CITY           SKY/WX    TMP DP  RH WIND       PRES   REMARKS
NASHVILLE      CLEAR     71  54  54 S5        30.21R
CLARKSVILLE    CLEAR     69  54  58 S3        30.18R
COOKEVILLE     CLEAR     61  55  82 CALM      30.24R
CROSSVILLE     CLEAR     66  49  54 CALM      30.29R
$$

TNZ061-075-076-078-094-096-097-050300-
SOUTH MIDDLE TENNESSEE

CITY           SKY/WX    TMP DP  RH WIND       PRES   REMARKS
FAYETTEVILLE     N/A     66  54  63 S3        30.24R
TULLAHOMA      CLEAR     63  54  72 CALM      30.26R
WINCHESTER     CLEAR     64  54  68 CALM      30.26R
MCMINNVILLE    CLEAR     66  55  68 CALM      30.25R
COLUMBIA       CLEAR     64  55  72 CALM      30.20S
SHELBYVILLE    CLEAR     64  55  72 SE3       30.24R
$$

TNZ017-018-042-046-047-050300-
NORTHEAST TENNESSEE

CITY           SKY/WX    TMP DP  RH WIND       PRES   REMARKS
TRI CITIES     FAIR      63  51  65 CALM      30.27R
ELIZABETHTON   PTCLDY    57  52  82 CALM      30.29R
$$

TNZ012-013-036-069-073-074-050300-
CENTRAL EAST TENNESSEE

CITY           SKY/WX    TMP DP  RH WIND       PRES   REMARKS
KNOXVILLE      CLEAR     71  49  45 SW5       30.25R
OAK RIDGE      CLEAR     67  53  61 CALM      30.26R
GATLINBURG     CLEAR     64  52  63 CALM      30.26R
$$

TNZ083-085-099-050300-
SOUTHEAST TENNESSEE

CITY           SKY/WX    TMP DP  RH WIND       PRES   REMARKS
CHATTANOOGA    PTCLDY    67  55  65 CALM      30.25R
$$

SKY/WX REPORTED AS FAIR MEANS FEW OR NO CLOUDS BELOW
12 THOUSAND FEET.




USA.gov is the U.S. government's official web portal to all federal, state and local government web resources and services.